This demonstration page uses our WeatherBlox Daily Observations layout. Learn more.

38.89511, -77.03637

Hourly Observations for January 13, 2018

Temp ( °F °C ) Dew Point ( °F °C ) Humidity (%) Winds ( mph kmh ) Pressure ( in mb ) Visibility ( mi km ) Precip ( " mm )
12:32 am 00:32 Cloudy with Light Rain 60 15.6 59 15 96 96 S 14 22 29.38 995 5 8.0467 0.04 1.016
12:39 am 00:39 Cloudy with Light Rain 60 15.6 60 15.6 100 100 S 15 24 29.38 995 5 8.0467 0.05 1.27
12:52 am 00:52 Cloudy with Light Rain 59 15 59 15 100 100 S 16 26 29.37 995 6 9.65604 0.06 1.524
12:56 am 00:56 Cloudy with Light Rain 59 15 59 15 100 100 S 16 26 29.38 995 2.5 4.02335 0 0.0254
12:58 am 00:58 Cloudy with Light Rain 60 15.6 59 15 96 96 S 18 30 29.38 995 5 8.0467 0 0.0254
1:05 am 01:05 Cloudy with Light Rain 60 15.6 60 15.6 100 100 S 18 30 29.38 995 6 9.65604 0 0.0254
1:19 am 01:19 Cloudy with Light Rain 62 16.7 61 16.1 96 96 W 25 41 29.41 996 2 3.21868 0 0.0254
1:23 am 01:23 Cloudy with Heavy Rain 59 15 57 13.9 93 93 W 29 46 29.44 997 2 3.21868 0.03 0.762
1:27 am 01:27 Cloudy with Rain 57 13.9 55 12.8 93 93 W 26 43 29.44 997 4 6.43736 0.04 1.016
1:31 am 01:31 Cloudy with Light Rain 56 13.3 54 12.2 93 93 W 35 56 29.47 998 5 8.0467 0.04 1.016
1:33 am 01:33 Cloudy with Light Rain 55 12.8 53 11.7 93 93 WNW 36 57 29.44 997 5 8.0467 0.04 1.016
1:45 am 01:45 Cloudy with Light Rain 53 11.7 50 10 89 89 NW 28 44 29.38 995 9 14.48406 0.06 1.524
1:52 am 01:52 Cloudy with Light Rain 53 11.7 49 9.4 86 86 NW 25 41 29.39 995 10 16.0934 0.06 1.524
2:31 am 02:31 Mostly Cloudy 51 10.6 47 8.3 86 86 W 10 17 29.47 998 10 16.0934 0 0.0254
2:37 am 02:37 Mostly Cloudy 51 10.6 47 8.3 86 86 W 15 24 29.47 998 10 16.0934 0 0.0254
2:52 am 02:52 Mostly Cloudy 50 10 46 7.8 86 86 VRB 6 9 29.48 998 10 16.0934 0 0.0254
3:02 am 03:02 Mostly Cloudy 50 10 46 7.8 86 86 WSW 10 17 29.5 999 10 16.0934 0 0
3:24 am 03:24 Cloudy 49 9.4 44 6.7 83 83 WNW 10 17 29.53 1000 10 16.0934 0 0
3:52 am 03:52 Cloudy 48 8.9 43 6.1 83 83 WNW 15 24 29.56 1001 10 16.0934 0 0
4:33 am 04:33 Cloudy with Light Rain 46 7.8 41 5 83 83 NW 17 28 29.59 1002 10 16.0934 0 0.0254
4:52 am 04:52 Cloudy with Light Rain 45 7.2 40 4.4 83 83 NW 17 28 29.61 1003 10 16.0934 0 0.0254
5:52 am 05:52 Cloudy 44 6.7 37 2.8 76 76 NW 23 37 29.69 1006 10 16.0934 0 0.0254
6:10 am 06:10 Cloudy 43 6.1 35 1.7 74 74 NNW 31 50 29.74 1007 10 16.0934 0 0
6:36 am 06:36 Cloudy 40 4.4 31 -0.6 70 70 NW 18 30 29.77 1008 10 16.0934 0 0.0254
6:52 am 06:52 Cloudy 39 3.9 30 -1.1 70 70 NW 18 30 29.81 1010 10 16.0934 0 0.0254
6:56 am 06:56 Cloudy 38 3.3 29 -1.7 70 70 NW 18 30 29.8 1009 10 16.0934 0 0
7:00 am 07:00 Cloudy 37 2.8 28 -2.2 70 70 NW 24 39 29.83 1010 10 16.0934 0 0
7:12 am 07:12 Cloudy 36 2.2 27 -2.8 70 70 NW 24 39 29.83 1010 10 16.0934 0 0
7:28 am 07:28 Cloudy 35 1.7 26 -3.3 70 70 NNW 25 41 29.88 1012 10 16.0934 0 0
7:52 am 07:52 Cloudy 34 1.1 25 -3.9 70 70 NW 23 37 29.88 1012 10 16.0934 0 0
8:52 am 08:52 Cloudy 33 0.6 23 -5 66 66 NNW 24 39 29.96 1014 10 16.0934 0 0
9:52 am 09:52 Mostly Cloudy 34 1.1 22 -5.6 61 61 NNW 22 35 30.01 1016 10 16.0934 0 0
10:52 am 10:52 Mostly Cloudy 34 1.1 21 -6.1 59 59 NNW 23 37 30.03 1017 10 16.0934 0 0
11:52 am 11:52 Mostly Cloudy 34 1.1 19 -7.2 54 54 NNW 18 30 30.05 1018 10 16.0934 0 0
12:52 pm 12:52 Partly Cloudy 36 2.2 19 -7.2 50 50 NW 18 30 30.07 1018 10 16.0934 0 0
1:52 pm 13:52 Mostly Sunny 36 2.2 18 -7.8 48 48 NNW 24 39 30.1 1019 10 16.0934 0 0
2:52 pm 14:52 Mostly Sunny 35 1.7 16 -8.9 46 46 NW 21 33 30.16 1021 10 16.0934 0 0
3:52 pm 15:52 Mostly Sunny 34 1.1 15 -9.4 46 46 NW 15 24 30.21 1023 10 16.0934 0 0
4:52 pm 16:52 Partly Cloudy 31 -0.6 11 -11.7 43 43 NNW 25 41 30.26 1025 10 16.0934 0 0
5:52 pm 17:52 Mostly Clear 29 -1.7 10 -12.2 45 45 NNW 20 31 30.3 1026 10 16.0934 0 0
6:52 pm 18:52 Clear 28 -2.2 10 -12.2 47 47 NNW 15 24 30.33 1027 10 16.0934 0 0
7:52 pm 19:52 Clear 26 -3.3 9 -12.8 48 48 NW 18 30 30.37 1028 10 16.0934 0 0
8:52 pm 20:52 Clear 25 -3.9 7 -13.9 46 46 NNW 20 31 30.42 1030 10 16.0934 0 0
9:52 pm 21:52 Clear 24 -4.4 6 -14.4 46 46 NW 20 31 30.46 1032 10 16.0934 0 0
10:52 pm 22:52 Clear 22 -5.6 4 -15.6 46 46 NNW 23 37 30.5 1033 10 16.0934 0 0
11:52 pm 23:52 Mostly Clear 22 -5.6 3 -16.1 44 44 NNW 20 31 30.52 1034 10 16.0934 0 0

Powered by AerisWeather